FALCON 9 R/B, 60234

Orbit data source: Space-Track

FALCON 9 R/B, 60234 is space debris in HEO originally from a launch on Mon, 08 Jul 2024 UTC launched from the Air Force Eastern Test Range (AFETR). Debris objects in space refer to the collection of defunct objects orbiting the Earth. Examples of debris include non-operational satellites, rocket bodies, and fragments generated from explosions, collisions, or faulty payload assembly.

Loading next visibility...
Identifier
60234, 2024-127B
Orbit
HEO
Last TLE update
4 days ago
Origin
Manufacturer
SpaceX
Mission
Spacecraft
Bus & Motor
F9ST2, Unknown motor
Mass
~4,000 kg wet, ~4,000 kg dry
Launch date (UTC)
2024-07-08 (10 months ago)
Launch vehicle
Unknown
Launch site
Air Force Eastern Test Range (AFETR)
Object type
Payload
Rocket body
Debris
Shape & HBR
Cyl, 15.53 m
Radar Cross Section
39.980 m²

Expand to show TLE details & history

TLE from 4 days ago
0 FALCON 9 R/B
1 60234U 24127B   25125.42323530 -.00000045  00000-0  22890-2 0  9991
2 60234  25.7637  70.9396 8297153 251.4282  11.9063  1.03875748  2858
Epoch: 2025-05-05T10:09Z
Definitive object data (Epoch: 2025-05-05T10:09:27.529Z)
Latitude
0.00163°
Longitude
54.72342°
Altitude
11,131.748 km
Speed
5.987 km/s
True Right ascension
04h 42m 30s
True Declination
0° 00' 06"
Sunlit
Object was in daylight at TLE epoch
Visualization TLE readout
Latitude
6.23006°
Longitude
67.16013°
Altitude
16,618.456 km
Speed
4.999 km/s
Apparent Right ascension
05h 07m 22s
Apparent Declination
-3° 21' 16"
Sunlit
Object is in daylight
Visualization observer readout
Local Sidereal Time
15:05:52
Azimuth
315.171° NNW
Elevation
-44.278°
Doppler factor
1
Orbital elements
Apogee altitude
68,984.482 km
Perigee altitude
635.578 km
Semi-major axis
41,188.167 km
Eccentricity
0.8297153
Inclination
25.7637°
RAAN
70.9396°
Arg. of periapsis
251.4282°
True anomaly
108.90969°
Mean anomaly
11.9063°
Eccentric anomaly
46.24271°
Mean motion
0.25965 °/min
BSTAR
0.002289
Orbital period
1386.49 mins
Loading maneuver chart data...
Loading SW <> Apogee altitude chart data...
Loading historical data...
Loading historical data...
Loading historical data...
Loading historical data...
Loading historical data...
Loading historical data...
Loading historical data...
Other satellites on launch #127 in the year 2024 (2024-07-08 UTC)

FALCON 9 R/B Visibility forecast

Observer location: undefined°, undefined°

Span
Click to sort rows by Start time (UTC) header in descending order
Start Az.
Max El. time (UTC)
Max El. Az.
Max El.
End time (UTC)
End Az.
530 mins2025-05-09 19:34:57.562Z69.614° E2025-05-10 02:32:57.562Z125.43° SE41.293°2025-05-10 04:24:57.562Z117.403° SE
|